Naples, FL

11:27 AM EDT on June 24, 2018 (GMT -0400)
Naples Municipal

Weather History for KAPF - October, 2012

Change the Weather History Date:

Saturday, October 27, 2012

  Actual Average Record
Temperature  
Mean Temperature 78 °F 76 °F  
Max Temperature 81 °F 85 °F 91 °F (1984)
Min Temperature 74 °F 68 °F 52 °F (1968)
Degree Days  
Heating Degree Days 0 0  
Month to date heating degree days 0 0  
Since 1 July heating degree days 0 0  
Cooling Degree Days 13 11  
Month to date cooling degree days 405 374  
Year to date cooling degree days 3826 3551  
Growing Degree Days 27 (Base 50)    
Moisture  
Dew Point 64 °F    
Average Humidity 66    
Maximum Humidity 73    
Minimum Humidity 58    
Precipitation  
Precipitation 0.00 in 0.08 in 0.66 in (1985)
Month to date precipitation 3.20 3.87  
Year to date precipitation 36.03 48.08  
Snow  
Snow 0.00 in - - ()
Month to date snowfall 0.0  
Since 1 July snowfall 0.0  
Since 1 September snowfall 0.0  
Snow Depth 0.00 in    
Sea Level Pressure  
Sea Level Pressure 29.66 in    
Wind  
Wind Speed 17 mph (NW)    
Max Wind Speed 29 mph    
Max Gust Speed 38 mph    
Visibility 10 miles    
Events      
T = Trace of Precipitation, MM = Missing Value Source: NWS Daily Summary

Daily Weather History Graph

Daily Weather History Graph

Search for Another Location

Airport or City:

Astronomy

Oct. 27, 2012 Rise Set
Actual Time 7:33 AM EDT 6:48 PM EDT
Civil Twilight 7:09 AM EDT 7:11 PM EDT
Nautical Twilight 6:42 AM EDT 7:39 PM EDT
Astronomical Twilight 6:15 AM EDT 8:06 PM EDT
Moon 5:27 PM EDT (10/27) 5:35 AM EDT (10/27)
Length of Visible Light 12h 02m
Length of Day
11h 15m
Waxing Gibbous, 96% of the Moon is Illuminated
Oct 27
Waxing Gibbous
Oct 29
Full
Nov 6
Last Quarter
Nov 13
New
Nov 20
First Quarter

Hourly Weather History & Observations

Time (EDT) Temp. Heat Index Dew Point Humidity Pressure Visibility Wind Dir Wind Speed Gust Speed Precip Events Conditions
12:53 AM 75.9 °F - 64.9 °F 69% 29.65 in 10.0 mi NW 15.0 mph 25.3 mph N/A   Clear
1:53 AM 75.0 °F - 64.9 °F 71% 29.64 in 10.0 mi NW 15.0 mph 24.2 mph N/A   Clear
2:53 AM 73.9 °F - 64.0 °F 71% 29.62 in 10.0 mi NW 16.1 mph 25.3 mph N/A   Clear
3:53 AM 73.9 °F - 64.0 °F 71% 29.62 in 10.0 mi NW 10.4 mph 25.3 mph N/A   Clear
4:53 AM 73.9 °F - 64.0 °F 71% 29.61 in 10.0 mi NW 12.7 mph 26.5 mph N/A   Clear
5:53 AM 75.0 °F - 63.0 °F 66% 29.61 in 10.0 mi NW 20.7 mph 28.8 mph N/A   Clear
6:53 AM 75.0 °F - 63.0 °F 66% 29.62 in 10.0 mi NW 11.5 mph 25.3 mph N/A   Clear
7:53 AM 75.9 °F - 62.1 °F 62% 29.65 in 10.0 mi NW 12.7 mph 29.9 mph N/A   Clear
8:53 AM 77.0 °F - 63.0 °F 62% 29.67 in 10.0 mi NW 17.3 mph 28.8 mph N/A   Clear
9:53 AM 79.0 °F - 63.0 °F 58% 29.68 in 10.0 mi NW 18.4 mph 27.6 mph N/A   Clear
10:53 AM 80.1 °F 81.7 °F 64.0 °F 58% 29.69 in 10.0 mi NW 18.4 mph 32.2 mph N/A   Clear
11:53 AM 80.1 °F 82.1 °F 66.0 °F 62% 29.69 in 10.0 mi NW 18.4 mph 31.1 mph N/A   Partly Cloudy
12:53 PM 81.0 °F 82.7 °F 64.9 °F 58% 29.69 in 10.0 mi NW 23.0 mph 38.0 mph N/A   Partly Cloudy
1:53 PM 80.1 °F 81.9 °F 64.9 °F 60% 29.67 in 10.0 mi NW 21.9 mph 36.8 mph N/A   Clear
2:53 PM 81.0 °F 82.7 °F 64.9 °F 58% 29.65 in 10.0 mi NW 16.1 mph 35.7 mph N/A   Clear
3:53 PM 80.1 °F 81.9 °F 64.9 °F 60% 29.65 in 10.0 mi NW 21.9 mph 35.7 mph N/A   Clear
4:53 PM 79.0 °F - 64.9 °F 62% 29.65 in 10.0 mi WNW 20.7 mph 32.2 mph N/A   Clear
5:53 PM 78.1 °F - 63.0 °F 60% 29.65 in 10.0 mi NW 16.1 mph 31.1 mph N/A   Clear
6:53 PM 77.0 °F - 64.0 °F 64% 29.67 in 10.0 mi NW 12.7 mph 28.8 mph N/A   Clear
7:53 PM 75.9 °F - 64.9 °F 69% 29.69 in 10.0 mi NW 17.3 mph 25.3 mph N/A   Clear
8:53 PM 75.9 °F - 64.9 °F 69% 29.71 in 10.0 mi NW 21.9 mph 32.2 mph N/A   Clear
9:53 PM 75.9 °F - 66.0 °F 71% 29.73 in 10.0 mi NW 15.0 mph 33.4 mph N/A   Clear
10:53 PM 75.9 °F - 66.0 °F 71% 29.74 in 10.0 mi NW 11.5 mph 20.7 mph N/A   Clear